This demonstration page uses our WeatherBlox Daily Observations layout. Learn more.

Left ArrowRight Arrow

Hourly Observations for January 21, 2019

Temp ( °F °C ) Dew Point ( °F °C ) Humidity (%) Winds ( mph kmh ) Pressure ( in mb ) Visibility ( mi km ) Precip ( " mm )
12:53 am 00:53 Clear 27 -2.8 14 -10 58 58 NW 12 19 30.24 1024 10 16 0.00 0.00
1:53 am 01:53 Clear 26 -3.3 12 -11.1 55 55 NNW 14 22 30.24 1024 10 16 0.00 0.00
2:53 am 02:53 Clear 25 -3.9 11 -11.7 55 55 NW 7 11 30.26 1025 10 16 0.00 0.00
3:53 am 03:53 Clear 24 -4.4 12 -11.1 60 60 NNW 8 13 30.27 1025 10 16 0.00 0.00
4:53 am 04:53 Clear 23 -5 11 -11.7 60 60 NNW 8 13 30.29 1026 10 16 0.00 0.00
5:53 am 05:53 Clear 23 -5 11 -11.7 60 60 NNW 9 15 30.30 1026 10 16 0.00 0.00
6:53 am 06:53 Clear 22 -5.6 11 -11.7 63 63 NNW 5 7 30.35 1028 10 16 0.00 0.00
7:53 am 07:53 Sunny 21 -6.1 11 -11.7 65 65 NW 8 13 30.37 1029 10 16 0.00 0.00
8:53 am 08:53 Sunny 23 -5 9 -12.8 55 55 NW 8 13 30.41 1030 10 16 0.00 0.00
9:53 am 09:53 Sunny 26 -3.3 8 -13.3 46 46 NNW 10 17 30.43 1031 10 16 0.00 0.00
10:53 am 10:53 Sunny 29 -1.7 8 -13.3 41 41 NW 7 11 30.45 1031 10 16 0.00 0.00
11:53 am 11:53 Sunny 32 0 8 -13.3 36 36 VRB 7 11 30.45 1031 10 16 0.00 0.00
12:53 pm 12:53 Sunny 35 1.7 8 -13.3 32 32 undefined N/A 30.43 1030 10 16 0.00 0.00
1:53 pm 13:53 Sunny 38 3.3 9 -12.8 30 30 NE 8 13 30.41 1030 10 16 0.00 0.00
2:53 pm 14:53 Sunny 41 5 10 -12.2 28 28 NNW 3 6 30.40 1030 10 16 0.00 0.00
3:53 pm 15:53 Sunny 41 5 9 -12.8 27 27 Calm 30.40 1029 10 16 0.00 0.00
4:53 pm 16:53 Sunny 43 6.1 10 -12.2 26 26 Calm 30.40 1029 10 16 0.00 0.00
5:53 pm 17:53 Sunny 40 4.4 10 -12.2 29 29 NNW 3 6 30.41 1030 10 16 0.00 0.00
6:53 pm 18:53 Clear 34 1.1 16 -8.9 48 48 Calm 30.42 1030 10 16 0.00 0.00
7:53 pm 19:53 Clear 32 0 21 -6.1 64 64 Calm 30.43 1030 10 16 0.00 0.00
8:53 pm 20:53 Clear 31 -0.6 20 -6.7 64 64 Calm 30.44 1031 10 16 0.00 0.00
9:53 pm 21:53 Clear 30 -1.1 21 -6.1 69 69 Calm 30.43 1031 10 16 0.00 0.00
10:53 pm 22:53 Clear 31 -0.6 21 -6.1 67 67 E 5 7 30.44 1031 10 16 0.00 0.00
11:53 pm 23:53 Clear 36 2.2 14 -10 40 40 E 7 11 30.44 1031 10 16 0.00 0.00

Powered by AerisWeather